Tracking 30995 objects as of 7-Jul-2025
HD Live streaming from Space Station
objects crossing your sky now

APRIZESAT 5

Track APRIZESAT 5 now!
10-day predictions
APRIZESAT 5 is classified as:


NORAD ID: 37792
Int'l Code: 2011-044E
Perigee: 598.5 km
Apogee: 674.4 km
Inclination: 98.2 °
Period: 97.3 minutes
Semi major axis: 7007 km
RCS: 0.107 m2 (medium)
Launch date: August 17, 2011
Source: United States (US)
Launch site: Orenburg, Russia (OREN)

Uplink (MHz):
Downlink (MHz):
Beacon (MHz):
Mode:
Call sign:
Status: Unknown

Your satellite tracking list
ONEWEB-0609
Track 1 satellite(s)




NASA's NSSDC Master Catalog

Two Line Element Set (TLE):
1 37792U 11044E   25187.72917527  .00000892  00000-0  12259-3 0  9992
2 37792  98.2305 106.6866 0054149  35.8680 324.6147 14.80009316747819
Source of the keplerian elements: AFSPC